GW3919 Weather Reports


Display with metric or nautical units.
time (UTC)temp
F
wind
direction
speed
MPH
gust
MPH
rain 1hr
in
rain 24hr
in
rain mn
in
humidity
%
barometer
mb
20260903230816 92 308 3.0 4.0 0.00 0.00 0.00 63 1011.8
20260903230312 90 289 2.0 5.0 0.00 0.00 0.00 66 1011.7
20260903225808 91 232 1.0 5.0 0.00 0.00 0.00 65 1011.7
20260903225306 91 292 5.0 8.0 0.00 0.00 0.00 65 1011.7
20260903224800 92 289 0.0 3.0 0.00 0.00 0.00 64 1011.5
20260903224255 93 256 4.0 7.0 0.00 0.00 0.00 62 1011.5
20260903223751 92 257 2.0 8.0 0.00 0.00 0.00 61 1011.5
20260903223249 93 306 2.0 4.0 0.00 0.00 0.00 60 1011.5
20260903222745 93 314 3.0 4.0 0.00 0.00 0.00 60 1011.6
20260903222243 94 273 2.0 5.0 0.00 0.00 0.00 59 1011.4
20260903221739 93 340 4.0 4.0 0.00 0.00 0.00 60 1011.3
20260903221237 92 308 3.0 4.0 0.00 0.00 0.00 61 1011.3
20260903220736 93 273 4.0 6.0 0.00 0.00 0.00 60 1011.5
20260903220231 92 306 3.0 8.0 0.00 0.00 0.00 62 1011.6
20260903215729 92 301 4.0 5.0 0.00 0.00 0.00 61 1011.7
20260903215225 93 225 3.0 3.0 0.00 0.00 0.00 62 1011.6
20260903214723 93 259 5.0 5.0 0.00 0.00 0.00 62 1011.8
20260903214220 92 269 3.0 4.0 0.00 0.00 0.00 62 1012.0
20260903213714 93 307 3.0 5.0 0.00 0.00 0.00 61 1012.0
20260903213210 93 293 2.0 5.0 0.00 0.00 0.00 62 1012.1
20260903212706 92 277 3.0 4.0 0.00 0.00 0.00 63 1012.2
20260903212202 92 302 5.0 6.0 0.00 0.00 0.00 63 1012.2
20260903211655 93 17 2.0 4.0 0.00 0.00 0.00 62 1012.3
20260903211152 92 224 4.0 5.0 0.00 0.00 0.00 63 1012.2
20260903210648 93 327 2.0 3.0 0.00 0.00 0.00 62 1012.2
20260903210143 92 294 2.0 5.0 0.00 0.00 0.00 64 1012.1
20260903205643 91 277 2.0 4.0 0.00 0.00 0.00 66 1012.2
20260903205142 90 293 4.0 6.0 0.00 0.00 0.00 67 1012.3
20260903204638 91 307 3.0 5.0 0.00 0.00 0.00 66 1012.4
20260903204134 91 282 3.0 4.0 0.00 0.00 0.00 65 1012.4
20260903203629 90 294 2.0 5.0 0.00 0.00 0.00 68 1012.4
20260903203130 89 296 1.0 4.0 0.00 0.00 0.00 68 1012.5
20260903202624 90 296 3.0 4.0 0.00 0.00 0.00 68 1012.7
20260903202120 89 318 2.0 5.0 0.00 0.00 0.00 69 1012.8
20260903201614 90 323 4.0 6.0 0.00 0.00 0.00 67 1012.9
20260903201113 91 113 2.0 5.0 0.00 0.00 0.00 66 1012.8
20260903200609 89 264 3.0 4.0 0.00 0.00 0.00 69 1012.9
20260903200104 91 296 6.0 8.0 0.00 0.00 0.00 66 1012.9
20260903195554 92 294 1.0 6.0 0.00 0.00 0.00 66 1012.7
20260903195050 92 202 0.0 3.0 0.00 0.00 0.00 65 1012.7
20260903194545 91 274 2.0 4.0 0.00 0.00 0.00 67 1012.6
20260903194040 90 35 1.0 4.0 0.00 0.00 0.00 69 1012.8
20260903193536 89 276 2.0 4.0 0.00 0.00 0.00 69 1012.9
20260903193025 88 300 2.0 3.0 0.00 0.00 0.00 71 1013.0
20260903192523 87 313 5.0 5.0 0.00 0.00 0.00 72 1013.2
20260903192022 87 309 4.0 6.0 0.00 0.00 0.00 73 1013.0
20260903191519 87 310 2.0 4.0 0.00 0.00 0.00 72 1013.1
20260903191018 88 297 2.0 4.0 0.00 0.00 0.00 72 1013.2
20260903190512 88 309 1.0 5.0 0.00 0.00 0.00 72 1013.4
20260903190007 89 267 2.0 4.0 0.00 0.00 0.00 71 1013.2
20260903185503 88 301 3.0 6.0 0.00 0.00 0.00 71 1013.4
20260903185002 89 347 0.0 4.0 0.00 0.00 0.00 71 1013.5
20260903184454 91 318 1.0 4.0 0.00 0.00 0.00 69 1013.6
20260903183953 90 263 3.0 5.0 0.00 0.00 0.00 70 1013.8
20260903183447 88 335 4.0 4.0 0.00 0.00 0.00 72 1013.7
20260903182942 87 352 3.0 3.0 0.00 0.00 0.00 74 1013.8
20260903182441 86 337 0.0 6.0 0.00 0.00 0.00 76 1014.0
20260903181936 86 338 4.0 10.0 0.00 0.00 0.00 75 1014.0
20260903181431 86 281 1.0 4.0 0.00 0.00 0.00 76 1014.1
20260903180930 86 329 2.0 3.0 0.00 0.00 0.00 76 1014.0
20260903180425 86 333 4.0 6.0 0.00 0.00 0.00 76 1014.3
20260903175924 86 331 4.0 5.0 0.00 0.00 0.00 77 1014.1
20260903175419 86 334 2.0 5.0 0.00 0.00 0.00 77 1014.3
20260903174913 85 265 5.0 6.0 0.00 0.00 0.00 77 1014.3
20260903174408 85 331 3.0 9.0 0.00 0.00 0.00 77 1014.7
20260903173903 85 258 2.0 5.0 0.00 0.00 0.00 78 1014.4
20260903173358 84 207 2.0 5.0 0.00 0.00 0.00 80 1014.5
20260903172853 83 333 4.0 5.0 0.00 0.00 0.00 81 1014.6
20260903172348 83 282 3.0 4.0 0.00 0.00 0.00 82 1014.7
20260903171843 82 268 3.0 3.0 0.00 0.00 0.00 83 1014.7
20260903171338 82 328 2.0 5.0 0.00 0.00 0.00 84 1014.8
20260903170838 83 273 3.0 4.0 0.00 0.00 0.00 84 1014.7
20260903170333 83 298 4.0 5.0 0.00 0.00 0.00 83 1014.5
20260903165831 83 317 3.0 6.0 0.00 0.00 0.00 83 1014.6
20260903165331 83 313 2.0 6.0 0.00 0.00 0.00 83 1014.3
20260903164826 83 333 4.0 4.0 0.00 0.00 0.00 83 1014.5
20260903164321 84 314 1.0 4.0 0.00 0.00 0.00 83 1014.5
20260903163820 84 291 0.0 3.0 0.00 0.00 0.00 83 1014.3
20260903163318 84 315 0.0 4.0 0.00 0.00 0.00 83 1014.4
20260903162813 84 280 2.0 3.0 0.00 0.00 0.00 84 1014.4
20260903162309 83 325 2.0 3.0 0.00 0.00 0.00 84 1014.3
20260903161805 83 285 0.0 2.0 0.00 0.00 0.00 85 1014.4
20260903161300 83 260 4.0 5.0 0.00 0.00 0.00 85 1014.3
20260903160756 83 313 0.0 3.0 0.00 0.00 0.00 86 1014.2
20260903160255 83 339 2.0 5.0 0.00 0.00 0.00 86 1014.2
20260903155753 82 134 0.0 4.0 0.00 0.00 0.00 86 1014.2
20260903155248 82 249 1.0 3.0 0.00 0.00 0.00 87 1014.3
20260903154744 82 348 4.0 5.0 0.00 0.00 0.00 87 1014.4
20260903154240 82 347 2.0 4.0 0.00 0.00 0.00 88 1014.4
20260903153735 82 311 2.0 3.0 0.00 0.00 0.00 88 1014.3
20260903153231 82 304 2.0 4.0 0.00 0.00 0.00 89 1014.3
20260903152727 82 328 2.0 3.0 0.00 0.00 0.00 89 1014.3
20260903152223 82 263 2.0 4.0 0.00 0.00 0.00 89 1014.3
20260903151722 82 292 1.0 3.0 0.00 0.00 0.00 89 1014.4
20260903151218 82 284 0.0 2.0 0.00 0.00 0.00 89 1014.3
20260903150713 82 295 1.0 4.0 0.00 0.00 0.00 89 1014.2
20260903150207 81 324 2.0 4.0 0.00 0.00 0.00 89 1014.1
20260903145702 82 230 4.0 4.0 0.00 0.00 0.00 89 1014.1
20260903145157 82 310 1.0 2.0 0.00 0.00 0.00 89 1014.4
20260903144656 81 340 2.0 3.0 0.00 0.00 0.00 89 1014.2
20260903144152 82 316 3.0 5.0 0.00 0.00 0.00 89 1014.3
20260903143648 82 311 2.0 3.0 0.00 0.00 0.00 89 1014.3
20260903143143 82 326 1.0 3.0 0.00 0.00 0.00 89 1014.2
20260903142639 81 284 1.0 4.0 0.00 0.00 0.00 89 1014.2
20260903142136 81 317 0.0 3.0 0.00 0.00 0.00 90 1014.1
20260903141631 81 280 1.0 2.0 0.00 0.00 0.00 90 1014.3
20260903141125 80 276 1.0 3.0 0.00 0.00 0.00 90 1014.0
20260903140622 80 240 0.0 1.0 0.00 0.00 0.00 91 1014.3
20260903140117 80 347 2.0 3.0 0.00 0.00 0.00 91 1014.3
20260903135612 79 327 2.0 3.0 0.00 0.00 0.00 92 1014.6
20260903135107 79 273 2.0 2.0 0.00 0.00 0.00 92 1014.5
20260903134605 79 289 1.0 4.0 0.00 0.00 0.00 92 1014.4
20260903134101 79 323 1.0 4.0 0.00 0.00 0.00 92 1014.5
20260903133558 79 309 3.0 4.0 0.00 0.00 0.00 92 1014.5
20260903133054 79 247 3.0 4.0 0.00 0.00 0.00 92 1014.2
20260903132549 79 241 3.0 3.0 0.00 0.00 0.00 92 1014.4
20260903132044 79 259 1.0 2.0 0.00 0.00 0.00 92 1014.3
20260903131544 79 289 1.0 2.0 0.00 0.00 0.00 92 1014.2
20260903131038 78 266 1.0 3.0 0.00 0.00 0.00 93 1013.9
20260903130532 78 291 0.0 2.0 0.00 0.00 0.00 93 1013.8
20260903130027 78 295 1.0 4.0 0.00 0.00 0.00 93 1013.9
20260903125525 78 235 2.0 4.0 0.00 0.00 0.00 93 1013.9
20260903125021 78 253 1.0 3.0 0.00 0.00 0.00 93 1013.9
20260903124515 78 248 2.0 2.0 0.00 0.00 0.00 93 1014.2
20260903124014 78 272 1.0 3.0 0.00 0.00 0.00 92 1014.0
20260903123509 78 290 4.0 4.0 0.00 0.00 0.00 92 1013.9
20260903123008 79 261 2.0 4.0 0.00 0.00 0.00 92 1013.8
20260903122508 79 262 1.0 2.0 0.00 0.00 0.00 92 1013.8
20260903122002 79 325 2.0 2.0 0.00 0.00 0.00 91 1013.7
20260903121457 79 242 1.0 3.0 0.00 0.00 0.00 91 1013.7
20260903120953 79 312 1.0 2.0 0.00 0.00 0.00 92 1013.6
20260903120451 78 310 0.0 2.0 0.00 0.00 0.00 92 1013.5
20260903115950 78 309 1.0 3.0 0.00 0.00 0.00 92 1013.5
20260903115450 78 269 0.0 2.0 0.00 0.00 0.00 92 1013.4
20260903114944 78 271 1.0 2.0 0.00 0.00 0.00 92 1013.5
20260903114440 78 346 0.0 2.0 0.00 0.00 0.00 92 1013.3
20260903113935 78 246 1.0 2.0 0.00 0.00 0.00 92 1013.1
20260903113432 78 274 2.0 2.0 0.00 0.00 0.00 92 1013.4
20260903112931 78 275 0.0 1.0 0.00 0.00 0.00 92 1013.6
20260903112427 78 321 0.0 2.0 0.00 0.00 0.00 92 1013.6
20260903111926 78 242 0.0 2.0 0.00 0.00 0.00 92 1013.5
20260903111421 78 269 0.0 3.0 0.00 0.00 0.00 92 1013.6
20260903110918 78 333 0.0 3.0 0.00 0.00 0.00 92 1013.7
20260903110413 78 255 2.0 3.0 0.00 0.00 0.00 92 1013.6
20260903105908 78 235 0.0 2.0 0.00 0.00 0.00 91 1013.7
20260903105403 78 264 0.0 2.0 0.00 0.00 0.00 91 1013.6
20260903104903 78 253 1.0 2.0 0.00 0.00 0.00 91 1013.3
20260903104357 78 275 2.0 3.0 0.00 0.00 0.00 91 1013.3
20260903103854 78 297 1.0 2.0 0.00 0.00 0.00 92 1013.2
20260903103350 78 319 0.0 2.0 0.00 0.00 0.00 92 1013.2
20260903102844 78 54 0.0 0.0 0.00 0.00 0.00 93 1013.1
20260903102338 78 345 0.0 1.0 0.00 0.00 0.00 92 1013.3
20260903101832 78 292 1.0 2.0 0.00 0.00 0.00 92 1013.2
20260903101327 78 275 0.0 2.0 0.00 0.00 0.00 93 1013.2
20260903100823 78 264 2.0 2.0 0.00 0.00 0.00 92 1013.2
20260903100317 78 295 0.0 2.0 0.00 0.00 0.00 92 1013.4
20260903095815 78 290 2.0 3.0 0.00 0.00 0.00 91 1013.1
20260903095309 78 305 1.0 4.0 0.00 0.00 0.00 91 1013.3
20260903094805 78 209 0.0 2.0 0.00 0.00 0.00 90 1013.4
20260903094304 78 8 0.0 4.0 0.00 0.00 0.00 90 1013.4
20260903093800 79 307 4.0 5.0 0.00 0.00 0.00 89 1013.4
20260903093255 79 274 2.0 4.0 0.00 0.00 0.00 87 1013.5
20260903092755 79 272 0.0 2.0 0.00 0.00 0.00 86 1013.3
20260903092250 79 286 0.0 2.0 0.00 0.00 0.00 86 1013.2
20260903091749 79 302 0.0 1.0 0.00 0.00 0.00 86 1013.2
20260903091243 79 286 0.0 2.0 0.00 0.00 0.00 86 1013.3
20260903090739 79 269 0.0 1.0 0.00 0.00 0.00 86 1013.1
20260903090233 79 131 1.0 2.0 0.00 0.00 0.00 86 1013.1
20260903085731 79 33 0.0 2.0 0.00 0.00 0.00 86 1013.0
20260903085226 79 143 1.0 2.0 0.00 0.00 0.00 86 1013.1
20260903084724 79 159 4.0 4.0 0.00 0.00 0.00 86 1012.9
20260903084219 79 205 0.0 2.0 0.00 0.00 0.00 87 1013.0
20260903083715 79 202 1.0 2.0 0.00 0.00 0.00 87 1013.2
20260903083215 79 265 1.0 2.0 0.00 0.00 0.00 87 1013.3
20260903082709 79 293 0.0 2.0 0.00 0.00 0.00 87 1013.0
20260903082205 79 315 0.0 2.0 0.00 0.00 0.00 87 1013.2
20260903081659 79 249 2.0 2.0 0.00 0.00 0.00 87 1012.9
20260903081155 79 211 2.0 2.0 0.00 0.00 0.00 88 1013.1
20260903080651 79 210 1.0 2.0 0.00 0.00 0.00 88 1012.9
20260903080149 79 81 0.0 3.0 0.00 0.00 0.00 89 1012.9
20260903075648 79 351 0.0 2.0 0.00 0.00 0.00 90 1013.0
20260903075143 79 272 1.0 1.0 0.00 0.00 0.00 91 1012.8
20260903074642 79 264 1.0 2.0 0.00 0.00 0.00 90 1013.0
20260903074137 79 279 1.0 2.0 0.00 0.00 0.00 90 1012.8
20260903073632 79 217 0.0 2.0 0.00 0.00 0.00 89 1013.0
20260903073127 79 237 1.0 2.0 0.00 0.00 0.00 88 1012.8
20260903072623 79 299 0.0 1.0 0.00 0.00 0.00 88 1012.9
20260903072119 79 157 0.0 1.0 0.00 0.00 0.00 88 1013.1
20260903071616 79 300 1.0 1.0 0.00 0.00 0.00 88 1013.0
20260903071111 79 269 0.0 1.0 0.00 0.00 0.00 88 1013.1
20260903070610 79 293 0.0 0.0 0.00 0.00 0.00 88 1013.0
20260903070107 79 106 0.0 1.0 0.00 0.00 0.00 88 1013.2
20260903065605 79 296 0.0 1.0 0.00 0.00 0.00 88 1013.0
20260903065100 79 229 0.0 2.0 0.00 0.00 0.00 88 1013.1
20260903064554 79 253 0.0 1.0 0.00 0.00 0.00 88 1013.0
20260903064049 79 147 0.0 1.0 0.00 0.00 0.00 88 1013.4
20260903063545 79 251 1.0 1.0 0.00 0.00 0.00 88 1013.2
20260903063040 79 104 0.0 1.0 0.00 0.00 0.00 88 1013.2
20260903062535 79 259 1.0 2.0 0.00 0.00 0.00 88 1013.3
20260903062031 79 255 0.0 1.0 0.00 0.00 0.00 88 1013.2
20260903061526 79 248 1.0 2.0 0.00 0.00 0.00 88 1013.0
20260903061020 79 260 1.0 2.0 0.00 0.00 0.00 88 1013.2
20260903060520 79 255 1.0 2.0 0.00 0.00 0.00 88 1013.3
20260903060016 79 234 0.0 6.0 0.00 0.00 0.00 87 1013.4
20260903055513 79 235 0.0 3.0 0.00 0.00 0.00 87 1013.4
20260903055012 79 266 2.0 4.0 0.00 0.00 0.00 87 1013.5
20260903054507 79 289 2.0 3.0 0.00 0.00 0.00 86 1013.6
20260903054003 79 26 0.0 4.0 0.00 0.00 0.00 85 1013.7
20260903053502 80 287 1.0 5.0 0.00 0.00 0.00 85 1013.6
20260903052959 80 240 4.0 4.0 0.00 0.00 0.00 85 1013.5
20260903052454 80 264 4.0 4.0 0.00 0.00 0.00 84 1013.6
20260903051950 80 235 3.0 4.0 0.00 0.00 0.00 83 1013.6
20260903051445 80 278 3.0 4.0 0.00 0.00 0.00 83 1013.5
20260903050941 80 291 2.0 4.0 0.00 0.00 0.00 83 1013.7
20260903050440 80 214 0.0 4.0 0.00 0.00 0.00 82 1013.7
20260903045940 80 275 3.0 8.0 0.00 0.31 0.31 82 1013.8
20260903045435 80 250 2.0 5.0 0.00 0.31 0.31 82 1013.9
20260903044932 80 251 2.0 4.0 0.00 0.31 0.31 81 1013.8
20260903044426 81 256 1.0 5.0 0.00 0.31 0.31 81 1013.8
20260903043923 81 271 2.0 5.0 0.00 0.31 0.31 80 1013.7
20260903043418 81 307 2.0 6.0 0.00 0.31 0.31 80 1013.7
20260903042916 81 261 4.0 6.0 0.00 0.31 0.31 79 1013.5
20260903042412 81 300 2.0 5.0 0.00 0.31 0.31 79 1013.5
20260903041908 82 226 4.0 5.0 0.00 0.31 0.31 78 1013.7
20260903041404 82 335 4.0 5.0 0.00 0.31 0.31 78 1013.8
20260903040859 82 276 2.0 5.0 0.00 0.31 0.31 78 1013.5
20260903040358 82 258 3.0 4.0 0.00 0.31 0.31 78 1013.8
20260903035854 82 254 3.0 6.0 0.00 0.31 0.31 77 1013.8
20260903035350 82 256 2.0 4.0 0.00 0.31 0.31 77 1013.7
20260903034845 82 262 2.0 5.0 0.00 0.31 0.31 77 1013.9
20260903034340 83 262 2.0 4.0 0.00 0.31 0.31 77 1013.6
20260903033835 83 250 3.0 6.0 0.00 0.31 0.31 76 1013.7
20260903033330 83 246 4.0 6.0 0.00 0.31 0.31 76 1013.6
20260903032824 83 267 3.0 6.0 0.00 0.31 0.31 76 1013.8
20260903032321 83 255 2.0 6.0 0.00 0.31 0.31 75 1013.8
20260903031816 83 268 2.0 4.0 0.00 0.31 0.31 75 1013.8
20260903031315 84 285 1.0 6.0 0.00 0.31 0.31 75 1013.7
20260903030811 84 278 5.0 6.0 0.00 0.31 0.31 74 1013.7
20260903030307 84 266 3.0 6.0 0.00 0.31 0.31 74 1013.7
20260903025802 84 264 1.0 8.0 0.00 0.31 0.31 73 1013.6
20260903025257 84 259 2.0 6.0 0.00 0.31 0.31 72 1013.5
20260903024752 84 243 2.0 4.0 0.00 0.31 0.31 73 1013.4
20260903024251 84 27 4.0 5.0 0.00 0.31 0.31 72 1013.4
20260903023747 85 253 5.0 5.0 0.00 0.31 0.31 72 1013.5
20260903023242 85 256 4.0 5.0 0.00 0.31 0.31 72 1013.3
20260903022737 85 279 2.0 4.0 0.00 0.31 0.31 72 1013.3
20260903022236 85 280 6.0 6.0 0.00 0.31 0.31 71 1013.4
20260903021730 85 275 4.0 5.0 0.00 0.31 0.31 71 1013.3
20260903021226 86 191 2.0 6.0 0.00 0.31 0.31 70 1013.2
20260903020725 86 9 1.0 5.0 0.00 0.31 0.31 71 1013.0
20260903020220 86 244 2.0 2.0 0.00 0.31 0.31 71 1013.2
20260903015716 86 279 1.0 4.0 0.00 0.31 0.31 71 1013.0
20260903015211 86 282 1.0 3.0 0.00 0.31 0.31 74 1012.8
20260903014707 86 245 1.0 4.0 0.00 0.31 0.31 71 1012.8
20260903014205 86 286 1.0 5.0 0.00 0.31 0.31 71 1012.6
20260903013700 86 320 2.0 4.0 0.00 0.31 0.31 71 1012.7
20260903013200 86 259 2.0 2.0 0.00 0.31 0.31 72 1012.6
20260903012658 86 271 2.0 4.0 0.00 0.31 0.31 72 1012.5
20260903012158 86 258 2.0 3.0 0.00 0.31 0.31 73 1012.4
20260903011652 86 271 0.0 3.0 0.00 0.31 0.31 74 1012.3
20260903011146 84 288 2.0 4.0 0.00 0.31 0.31 75 1012.4
20260903010641 81 254 0.0 2.0 0.00 0.31 0.31 86 1012.3
20260903010140 80 280 0.0 1.0 0.00 0.31 0.31 92 1011.9
20260903005635 79 240 0.0 1.0 0.00 0.31 0.31 96 1012.1
20260903005131 78 249 1.0 2.0 0.00 0.31 0.31 99 1012.2
20260903004631 79 262 1.0 2.0 0.00 0.31 0.31 99 1012.2
20260903004126 79 260 1.0 2.0 0.00 0.31 0.31 99 1012.1
20260903003621 80 242 1.0 2.0 0.00 0.31 0.31 99 1012.1
20260903003117 80 244 1.0 1.0 0.00 0.31 0.31 99 1012.0
20260903002612 80 260 0.0 1.0 0.00 0.31 0.31 99 1012.1
20260903002112 81 284 0.0 1.0 0.00 0.31 0.31 99 1012.1
20260903001607 81 250 1.0 1.0 0.00 0.31 0.31 99 1011.9
20260903001100 81 269 1.0 1.0 0.00 0.31 0.31 99 1011.9
20260903000556 80 264 1.0 2.0 0.00 0.31 0.31 99 1011.8
20260903000055 80 237 1.0 1.0 0.00 0.31 0.31 99 1011.8
20260902235549 80 267 2.0 2.0 0.00 0.31 0.31 99 1012.1
20260902235044 81 264 2.0 2.0 0.00 0.31 0.31 99 1011.9
20260902234539 80 273 0.0 2.0 0.00 0.31 0.31 99 1011.9
20260902234037 81 257 1.0 2.0 0.00 0.31 0.31 99 1011.9
20260902233532 81 295 1.0 2.0 0.00 0.31 0.31 99 1011.8
20260902233026 80 290 0.0 1.0 0.00 0.31 0.31 99 1011.9
20260902232526 80 193 0.0 1.0 0.00 0.31 0.31 99 1011.9
20260902232020 80 263 1.0 2.0 0.00 0.31 0.31 99 1011.9
20260902231515 80 261 0.0 1.0 0.00 0.31 0.31 99 1011.8